Location: ??? ???
(33.4974°N, 35.4618°E)
Time: 11:05:48
(UTC+00:00)

Cosmos 2360 - Pass Details

Date: 29 October 2020
Orbit: 848 x 855 km, 70.8° (Epoch: 27 November)

Event Time Altitude Azimuth Distance (km) Brightness Sun altitude
Rises 16:06:46 0° 203° (SSW) 3,408 7.8 -16.8°
Reaches altitude 10° 16:09:12 10° 205° (SSW) 2,475 7.0 -17.3°
Maximum altitude 16:14:54 78° 291° (WNW) 876 4.3 -18.5°
Drops below altitude 10° 16:20:37 10° 18° (NNE) 2,487 6.4 -19.7°
Enters shadow 16:22:31 - 19° (NNE) 3,204 7.0 -20.1°
